,,PA_Meas_PMT16A,,PR_Meas_QMR101_102,,RH_Meas_QMH101,,SR_Meas_QMS101,,TA_Meas_QMH101,,GenWind,,GenWind,
time,status,PA,status,PR,status,RH,status,SR,status,TA,status,DirAvg,status,SpdAvg,
2013-09-25, 00:00:04,VALID,919,VALID,0,VALID,92.0451,VALID,0,VALID,20.3464,VALID,28,VALID,0,
2013-09-25, 00:01:04,VALID,919.006,VALID,0,VALID,92.0832,VALID,0,VALID,20.3869,VALID,28,VALID,0,
2013-09-25, 00:02:04,VALID,918.997,VALID,0,VALID,92.1595,VALID,0,VALID,20.3659,VALID,28,VALID,0.364844,
2013-09-25, 00:03:04,VALID,919.003,VALID,0,VALID,92.3501,VALID,0,VALID,20.3464,VALID,28,VALID,0.173828,
2013-09-25, 00:04:04,VALID,918.961,VALID,0,VALID,92.2662,VALID,0,VALID,20.3659,VALID,28,VALID,0.201172,
2013-09-25, 00:05:04,VALID,918.972,VALID,0,VALID,92.1823,VALID,0,VALID,20.4049,VALID,28,VALID,0,
2013-09-25, 00:06:04,VALID,918.974,VALID,0,VALID,92.19,VALID,0,VALID,20.4049,VALID,28,VALID,0,
2013-09-25, 00:07:04,VALID,918.998,VALID,0,VALID,92.0451,VALID,0,VALID,20.4244,VALID,28,VALID,0.680469,
2013-09-25, 00:08:04,VALID,918.966,VALID,0,VALID,91.0388,VALID,0,VALID,20.3269,VALID,28,VALID,0.388281,
2013-09-25, 00:09:04,VALID,918.951,VALID,0,VALID,91.2752,VALID,0,VALID,20.2684,VALID,28,VALID,0.106641,
2013-09-25, 00:10:04,VALID,918.934,VALID,0,VALID,92.1519,VALID,0,VALID,20.3074,VALID,42,VALID,0.511328,
2013-09-25, 00:11:04,VALID,918.961,VALID,0,VALID,92.4568,VALID,0,VALID,20.3269,VALID,42,VALID,0,
2013-09-25, 00:12:04,VALID,918.955,VALID,0,VALID,92.5025,VALID,0,VALID,20.3659,VALID,42,VALID,0,
2013-09-25, 00:13:04,VALID,918.927,VALID,0,VALID,92.3577,VALID,0,VALID,20.4049,VALID,42,VALID,0,
2013-09-25, 00:14:04,VALID,918.897,VALID,0,VALID,92.1061,VALID,0,VALID,20.3854,VALID,42,VALID,0.174219,
2013-09-25, 00:15:04,VALID,918.864,VALID,0,VALID,91.9384,VALID,0,VALID,20.3659,VALID,42,VALID,0.838672,
2013-09-25, 00:16:04,VALID,918.854,VALID,0,VALID,91.8317,VALID,0,VALID,20.3659,VALID,42,VALID,0.836328,
2013-09-25, 00:17:04,VALID,918.82,VALID,0,VALID,91.8088,VALID,0,VALID,20.3479,VALID,42,VALID,1.06758,
2013-09-25, 00:18:04,VALID,918.818,VALID,0,VALID,92.0451,VALID,0,VALID,20.2684,VALID,42,VALID,0.757031,
2013-09-25, 00:19:04,VALID,918.807,VALID,0,VALID,92.1442,VALID,0,VALID,20.3074,VALID,42,VALID,0.630078,
2013-09-25, 00:20:04,VALID,918.791,VALID,0,VALID,92.2128,VALID,0,VALID,20.3074,VALID,42,VALID,1.08555,
2013-09-25, 00:21:04,VALID,918.798,VALID,0,VALID,91.9003,VALID,0,VALID,20.3269,VALID,32,VALID,0.814453,
2013-09-25, 00:22:04,VALID,918.788,VALID,0,VALID,91.542,VALID,0,VALID,20.3464,VALID,31,VALID,0.703125,
2013-09-25, 00:23:04,VALID,918.727,VALID,0,VALID,91.2523,VALID,0,VALID,20.3269,VALID,31,VALID,0.845703,
2013-09-25, 00:24:04,VALID,918.694,VALID,0,VALID,90.9473,VALID,0,VALID,20.3074,VALID,40,VALID,0.68125,
2013-09-25, 00:25:04,VALID,918.641,VALID,0,VALID,90.9778,VALID,0,VALID,20.2489,VALID,40,VALID,0.755469,
2013-09-25, 00:26:04,VALID,918.591,VALID,0,VALID,91.1151,VALID,0,VALID,20.2098,VALID,39,VALID,0.478125,
2013-09-25, 00:27:04,VALID,918.598,VALID,0,VALID,91.0998,VALID,0,VALID,20.2293,VALID,39,VALID,0,
2013-09-25, 00:28:04,VALID,918.567,VALID,0,VALID,91.1837,VALID,0,VALID,20.2293,VALID,44,VALID,0.389453,
2013-09-25, 00:29:04,VALID,918.559,VALID,0,VALID,91.0236,VALID,0,VALID,20.2684,VALID,52,VALID,0.204297,
2013-09-25, 00:30:04,VALID,918.542,VALID,0,VALID,90.833,VALID,0,VALID,20.2684,VALID,52,VALID,0.450781,
2013-09-25, 00:31:04,VALID,918.5,VALID,0,VALID,90.6653,VALID,0,VALID,20.2489,VALID,51,VALID,0.441406,
2013-09-25, 00:32:04,VALID,918.513,VALID,0,VALID,90.4137,VALID,0,VALID,20.2293,VALID,51,VALID,0.152734,
2013-09-25, 00:33:04,VALID,918.468,VALID,0,VALID,90.1469,VALID,0,VALID,20.2293,VALID,51,VALID,0.791016,
2013-09-25, 00:34:04,VALID,918.484,VALID,0,VALID,89.9563,VALID,0,VALID,20.2098,VALID,51,VALID,0.383594,
2013-09-25, 00:35:04,VALID,918.47,VALID,0,VALID,90.0402,VALID,0,VALID,20.2489,VALID,84,VALID,1.19102,
2013-09-25, 00:36:04,VALID,918.495,VALID,0,VALID,90.0478,VALID,0,VALID,20.2879,VALID,84,VALID,0.432031,
2013-09-25, 00:37:04,VALID,918.537,VALID,0,VALID,89.4379,VALID,0,VALID,20.2879,VALID,84,VALID,0,
2013-09-25, 00:38:04,VALID,918.527,VALID,0,VALID,89.3083,VALID,0,VALID,20.2489,VALID,84,VALID,0.176953,
2013-09-25, 00:39:04,VALID,918.525,VALID,0,VALID,89.2092,VALID,0,VALID,20.2504,VALID,84,VALID,0.221875,
2013-09-25, 00:40:04,VALID,918.46,VALID,0,VALID,89.1635,VALID,0,VALID,20.2293,VALID,17,VALID,0.701563,
2013-09-25, 00:41:04,VALID,918.428,VALID,0,VALID,89.3159,VALID,0,VALID,20.1903,VALID,17,VALID,0.632031,
2013-09-25, 00:42:04,VALID,918.388,VALID,0,VALID,89.9487,VALID,0,VALID,20.1708,VALID,17,VALID,0.607813,
2013-09-25, 00:43:04,VALID,918.379,VALID,0,VALID,90.2994,VALID,0,VALID,20.1513,VALID,17,VALID,0.615234,
2013-09-25, 00:44:04,VALID,918.387,VALID,0,VALID,90.6348,VALID,0,VALID,20.1708,VALID,17,VALID,0.317969,
2013-09-25, 00:45:04,VALID,918.421,VALID,0,VALID,90.7339,VALID,0,VALID,20.1318,VALID,17,VALID,0,
2013-09-25, 00:46:04,VALID,918.441,VALID,0,VALID,90.6882,VALID,0,VALID,20.1919,VALID,17,VALID,0.0648438,
2013-09-25, 00:47:04,VALID,918.474,VALID,0,VALID,90.1393,VALID,0,VALID,20.1123,VALID,17,VALID,0.065625,
2013-09-25, 00:48:04,VALID,918.519,VALID,0,VALID,90.2994,VALID,0,VALID,20.1123,VALID,17,VALID,0,
2013-09-25, 00:49:04,VALID,918.515,VALID,0,VALID,90.5662,VALID,0,VALID,20.2098,VALID,17,VALID,0,
2013-09-25, 00:50:04,VALID,918.5,VALID,0,VALID,91.0998,VALID,0,VALID,20.2504,VALID,17,VALID,0,
2013-09-25, 00:51:04,VALID,918.425,VALID,0,VALID,91.2675,VALID,0,VALID,20.2684,VALID,17,VALID,0.189063,
2013-09-25, 00:52:04,VALID,918.411,VALID,0,VALID,91.42,VALID,0,VALID,20.2489,VALID,17,VALID,0.448828,
2013-09-25, 00:53:04,VALID,918.382,VALID,0,VALID,90.6805,VALID,0,VALID,20.1513,VALID,17,VALID,0,
2013-09-25, 00:54:04,VALID,918.366,VALID,0,VALID,90.9778,VALID,0,VALID,20.1123,VALID,17,VALID,0.0308594,
2013-09-25, 00:55:04,VALID,918.344,VALID,0,VALID,91.3285,VALID,0,VALID,20.1318,VALID,17,VALID,0.496484,
2013-09-25, 00:56:04,VALID,918.362,VALID,0,VALID,91.824,VALID,0,VALID,20.0928,VALID,17,VALID,0.183203,
2013-09-25, 00:57:04,VALID,918.37,VALID,0,VALID,92.0756,VALID,0,VALID,20.0928,VALID,17,VALID,0.144922,
2013-09-25, 00:58:04,VALID,918.397,VALID,0,VALID,92.0146,VALID,0,VALID,20.0538,VALID,17,VALID,0,
2013-09-25, 00:59:04,VALID,918.369,VALID,0,VALID,92.2128,VALID,0,VALID,20.1318,VALID,17,VALID,0.237109,
2013-09-25, 01:00:04,VALID,918.354,VALID,0,VALID,92.3272,VALID,0,VALID,20.1513,VALID,17,VALID,0.0265625,
2013-09-25, 01:01:04,VALID,918.334,VALID,0,VALID,91.7097,VALID,0,VALID,20.1318,VALID,17,VALID,0.703516,
2013-09-25, 01:02:04,VALID,918.261,VALID,0,VALID,91.542,VALID,0,VALID,20.0538,VALID,17,VALID,0.587109,
2013-09-25, 01:03:04,VALID,918.269,VALID,0,VALID,90.5128,VALID,0,VALID,19.9953,VALID,17,VALID,0.677734,
2013-09-25, 01:04:04,VALID,918.268,VALID,0,VALID,91.6487,VALID,0,VALID,19.9758,VALID,17,VALID,0.394531,
2013-09-25, 01:05:04,VALID,918.315,VALID,0,VALID,92.4187,VALID,0,VALID,19.9758,VALID,17,VALID,0.5125,
2013-09-25, 01:06:04,VALID,918.385,VALID,0,VALID,92.6855,VALID,0,VALID,20.0148,VALID,17,VALID,0.346875,
2013-09-25, 01:07:04,VALID,918.419,VALID,0,VALID,92.6474,VALID,0,VALID,20.0928,VALID,17,VALID,0.644531,
2013-09-25, 01:08:04,VALID,918.411,VALID,0,VALID,92.716,VALID,0,VALID,20.0944,VALID,241,VALID,0.552734,
2013-09-25, 01:09:04,VALID,918.411,VALID,0,VALID,92.9142,VALID,0,VALID,20.1334,VALID,241,VALID,0.05625,
2013-09-25, 01:10:04,VALID,918.398,VALID,0,VALID,92.7922,VALID,0,VALID,20.1318,VALID,241,VALID,0,
2013-09-25, 01:11:04,VALID,918.398,VALID,0,VALID,92.3348,VALID,0,VALID,20.1123,VALID,241,VALID,0,
2013-09-25, 01:12:04,VALID,918.416,VALID,0,VALID,92.3043,VALID,0,VALID,20.1123,VALID,241,VALID,0,
2013-09-25, 01:13:04,VALID,918.435,VALID,0,VALID,92.4034,VALID,0,VALID,20.1529,VALID,241,VALID,0,
2013-09-25, 01:14:04,VALID,918.451,VALID,0,VALID,92.5559,VALID,0,VALID,20.1123,VALID,241,VALID,0,
2013-09-25, 01:15:04,VALID,918.449,VALID,0,VALID,92.3653,VALID,0,VALID,20.1513,VALID,241,VALID,0,
2013-09-25, 01:16:04,VALID,918.432,VALID,0,VALID,92.1671,VALID,0,VALID,20.1708,VALID,241,VALID,0,
2013-09-25, 01:17:04,VALID,918.412,VALID,0,VALID,92.2205,VALID,0,VALID,20.1708,VALID,241,VALID,0,
2013-09-25, 01:18:04,VALID,918.376,VALID,0,VALID,92.068,VALID,0,VALID,20.1903,VALID,241,VALID,0,
2013-09-25, 01:19:04,VALID,918.374,VALID,0,VALID,91.8774,VALID,0,VALID,20.1903,VALID,241,VALID,0,
2013-09-25, 01:20:05,VALID,918.377,VALID,0,VALID,91.6258,VALID,0,VALID,20.1513,VALID,241,VALID,0,
2013-09-25, 01:21:05,VALID,918.392,VALID,0,VALID,91.7173,VALID,0,VALID,20.0928,VALID,241,VALID,0,
2013-09-25, 01:22:05,VALID,918.402,VALID,0,VALID,92.0756,VALID,0.107441,VALID,20.0928,VALID,241,VALID,0,
2013-09-25, 01:23:05,VALID,918.411,VALID,0,VALID,92.2052,VALID,0,VALID,20.0733,VALID,241,VALID,0,
2013-09-25, 01:24:05,VALID,918.4,VALID,0,VALID,92.3424,VALID,0,VALID,20.1318,VALID,241,VALID,0,
2013-09-25, 01:25:05,VALID,918.383,VALID,0,VALID,92.2433,VALID,0,VALID,20.1318,VALID,241,VALID,0,
2013-09-25, 01:26:05,VALID,918.369,VALID,0,VALID,91.9003,VALID,0,VALID,20.1318,VALID,241,VALID,0,
2013-09-25, 01:27:05,VALID,918.376,VALID,0,VALID,91.8088,VALID,0,VALID,20.1513,VALID,241,VALID,0,
2013-09-25, 01:28:05,VALID,918.373,VALID,0,VALID,91.9384,VALID,0,VALID,20.1903,VALID,241,VALID,0,
2013-09-25, 01:29:05,VALID,918.371,VALID,0,VALID,91.9308,VALID,0,VALID,20.1708,VALID,241,VALID,0,
2013-09-25, 01:30:05,VALID,918.325,VALID,0,VALID,91.885,VALID,0,VALID,20.1708,VALID,241,VALID,0,
2013-09-25, 01:31:05,VALID,918.311,VALID,0,VALID,91.4276,VALID,0,VALID,20.1529,VALID,241,VALID,0,
2013-09-25, 01:32:05,VALID,918.275,VALID,0,VALID,91.1837,VALID,0,VALID,20.1708,VALID,241,VALID,0,
2013-09-25, 01:33:05,VALID,918.281,VALID,0,VALID,91.0846,VALID,0,VALID,20.1123,VALID,241,VALID,0,
2013-09-25, 01:34:05,VALID,918.265,VALID,0,VALID,91.4886,VALID,0,VALID,20.0538,VALID,359,VALID,0.751562,
2013-09-25, 01:35:05,VALID,918.235,VALID,0,VALID,92.1747,VALID,0,VALID,20.0749,VALID,19,VALID,0.989062,
2013-09-25, 01:36:05,VALID,918.213,VALID,0,VALID,92.7389,VALID,0,VALID,20.0733,VALID,23,VALID,1.21914,
2013-09-25, 01:37:05,VALID,918.15,VALID,0,VALID,92.9752,VALID,0,VALID,20.1919,VALID,43,VALID,0.782031,
2013-09-25, 01:38:05,VALID,918.15,VALID,0,VALID,93.1124,VALID,0,VALID,20.2293,VALID,55,VALID,0.997656,
2013-09-25, 01:39:05,VALID,918.107,VALID,0,VALID,92.8989,VALID,0,VALID,20.3269,VALID,13,VALID,0.628516,
2013-09-25, 01:40:05,VALID,918.108,VALID,0,VALID,92.9828,VALID,0,VALID,20.3074,VALID,16,VALID,0.933594,
2013-09-25, 01:41:05,VALID,918.079,VALID,0,VALID,92.9828,VALID,0,VALID,20.3854,VALID,16,VALID,0,
2013-09-25, 01:42:05,VALID,918.095,VALID,0,VALID,92.9447,VALID,0,VALID,20.3854,VALID,16,VALID,0.293359,
2013-09-25, 01:43:05,VALID,918.079,VALID,0,VALID,93.0972,VALID,0,VALID,20.4244,VALID,30,VALID,0.223828,
2013-09-25, 01:44:05,VALID,918.146,VALID,0,VALID,92.9066,VALID,0,VALID,20.4244,VALID,30,VALID,0,
2013-09-25, 01:45:05,VALID,918.129,VALID,0,VALID,92.8989,VALID,0,VALID,20.4618,VALID,30,VALID,0.0359375,
2013-09-25, 01:46:05,VALID,918.151,VALID,0,VALID,92.8685,VALID,0,VALID,20.5219,VALID,30,VALID,0,
2013-09-25, 01:47:05,VALID,918.134,VALID,0,VALID,92.7541,VALID,0,VALID,20.5219,VALID,30,VALID,0,
2013-09-25, 01:48:05,VALID,918.13,VALID,0,VALID,92.3424,VALID,0,VALID,20.4829,VALID,30,VALID,0,
2013-09-25, 01:49:05,VALID,918.066,VALID,0,VALID,92.7617,VALID,0,VALID,20.4845,VALID,358,VALID,0.832031,
2013-09-25, 01:50:05,VALID,918.079,VALID,0,VALID,92.8532,VALID,0,VALID,20.465,VALID,357,VALID,0.963281,
2013-09-25, 01:51:05,VALID,918.061,VALID,0,VALID,92.8989,VALID,0,VALID,20.5024,VALID,359,VALID,1.29375,
2013-09-25, 01:52:05,VALID,918.021,VALID,0,VALID,92.8608,VALID,0,VALID,20.5024,VALID,6,VALID,1.26797,
2013-09-25, 01:53:05,VALID,918.051,VALID,0,VALID,92.8837,VALID,0,VALID,20.5024,VALID,6,VALID,0.724609,
2013-09-25, 01:54:05,VALID,917.99,VALID,0,VALID,92.7998,VALID,0,VALID,20.5414,VALID,344,VALID,0.319141,
2013-09-25, 01:55:05,VALID,917.965,VALID,0,VALID,92.655,VALID,0,VALID,20.5609,VALID,6,VALID,1.22187,
2013-09-25, 01:56:05,VALID,917.949,VALID,0,VALID,92.4873,VALID,0,VALID,20.5024,VALID,12,VALID,1.31641,
2013-09-25, 01:57:05,VALID,917.925,VALID,0,VALID,92.4187,VALID,0,VALID,20.4829,VALID,6,VALID,1.27422,
2013-09-25, 01:58:05,VALID,917.922,VALID,0,VALID,92.4949,VALID,0,VALID,20.4244,VALID,4,VALID,1.27695,
2013-09-25, 01:59:05,VALID,917.943,VALID,0,VALID,92.8913,VALID,0,VALID,20.3838,VALID,17,VALID,0.75,
2013-09-25, 02:00:05,VALID,917.889,VALID,0,VALID,93.1353,VALID,0,VALID,20.4244,VALID,351,VALID,0.294141,
2013-09-25, 02:01:05,VALID,917.871,VALID,0,VALID,93.1505,VALID,0,VALID,20.4439,VALID,351,VALID,0.718359,
2013-09-25, 02:02:05,VALID,917.879,VALID,0,VALID,93.1124,VALID,0,VALID,20.4439,VALID,345,VALID,0.654297,
2013-09-25, 02:03:05,VALID,917.825,VALID,0,VALID,93.0819,VALID,0,VALID,20.5024,VALID,11,VALID,1.34336,
2013-09-25, 02:04:05,VALID,917.795,VALID,0,VALID,93.2115,VALID,0,VALID,20.4244,VALID,25,VALID,1.48711,
2013-09-25, 02:05:05,VALID,917.819,VALID,0,VALID,93.5393,VALID,0,VALID,20.4829,VALID,28,VALID,0.950391,
2013-09-25, 02:06:05,VALID,917.801,VALID,0,VALID,93.951,VALID,0,VALID,20.4829,VALID,37,VALID,0.176953,
2013-09-25, 02:07:05,VALID,917.796,VALID,0,VALID,93.7147,VALID,0,VALID,20.5024,VALID,346,VALID,0.471094,
2013-09-25, 02:08:05,VALID,917.778,VALID,0,VALID,93.8824,VALID,0,VALID,20.5024,VALID,346,VALID,0,
2013-09-25, 02:09:05,VALID,917.783,VALID,0,VALID,93.7833,VALID,0,VALID,20.5609,VALID,345,VALID,0,
2013-09-25, 02:10:05,VALID,917.744,VALID,0,VALID,93.8138,VALID,0,VALID,20.5219,VALID,345,VALID,0,
2013-09-25, 02:11:05,VALID,917.727,VALID,0,VALID,93.7528,VALID,0,VALID,20.5999,VALID,345,VALID,0.00429688,
2013-09-25, 02:12:05,VALID,917.739,VALID,0,VALID,93.6003,VALID,0,VALID,20.5609,VALID,345,VALID,0,
2013-09-25, 02:13:05,VALID,917.773,VALID,0,VALID,93.4402,VALID,0,VALID,20.5414,VALID,345,VALID,0.191016,
2013-09-25, 02:14:05,VALID,917.784,VALID,0,VALID,93.2954,VALID,0,VALID,20.5024,VALID,345,VALID,0,
2013-09-25, 02:15:05,VALID,917.801,VALID,0,VALID,93.4021,VALID,0,VALID,20.5024,VALID,345,VALID,0,
2013-09-25, 02:16:05,VALID,917.815,VALID,0,VALID,93.5622,VALID,0,VALID,20.5219,VALID,345,VALID,0,
2013-09-25, 02:17:05,VALID,917.816,VALID,0,VALID,93.7604,VALID,0,VALID,20.5204,VALID,345,VALID,0,
2013-09-25, 02:18:05,VALID,917.8,VALID,0,VALID,93.6842,VALID,0,VALID,20.5219,VALID,345,VALID,0,
2013-09-25, 02:19:05,VALID,917.8,VALID,0,VALID,93.7909,VALID,0,VALID,20.5414,VALID,345,VALID,0,
2013-09-25, 02:20:05,VALID,917.825,VALID,0,VALID,93.8214,VALID,0,VALID,20.5609,VALID,345,VALID,0,
2013-09-25, 02:21:05,VALID,917.819,VALID,0,VALID,93.6918,VALID,0,VALID,20.5399,VALID,345,VALID,0,
2013-09-25, 02:22:05,VALID,917.804,VALID,0,VALID,93.4631,VALID,0,VALID,20.5414,VALID,345,VALID,0,
2013-09-25, 02:23:05,VALID,917.783,VALID,0,VALID,93.2572,VALID,0,VALID,20.4829,VALID,345,VALID,0,
2013-09-25, 02:24:05,VALID,917.75,VALID,0,VALID,93.181,VALID,0,VALID,20.4033,INVALID,360,VALID,0,
2013-09-25, 02:25:05,VALID,917.738,VALID,0,VALID,93.1505,VALID,0,VALID,20.4049,VALID,345,VALID,0.416797,
2013-09-25, 02:26:05,VALID,917.717,VALID,0,VALID,93.181,VALID,0,VALID,20.3838,VALID,345,VALID,0.382813,
2013-09-25, 02:27:05,VALID,917.724,VALID,0,VALID,93.2191,VALID,0,VALID,20.3854,VALID,345,VALID,0.440625,
2013-09-25, 02:28:05,VALID,917.758,VALID,0,VALID,93.2954,VALID,0,VALID,20.3838,VALID,345,VALID,0.311328,
2013-09-25, 02:29:05,VALID,917.769,VALID,0,VALID,93.2725,VALID,0,VALID,20.3854,VALID,345,VALID,0.243359,
2013-09-25, 02:30:05,VALID,917.83,VALID,0,VALID,93.4326,VALID,0,VALID,20.4244,VALID,345,VALID,0.383203,
2013-09-25, 02:31:05,VALID,917.859,VALID,0,VALID,93.3182,VALID,0,VALID,20.4244,VALID,345,VALID,0.231641,
2013-09-25, 02:32:05,VALID,917.832,VALID,0,VALID,93.1734,VALID,0,VALID,20.4049,VALID,345,VALID,0.517578,
2013-09-25, 02:33:05,VALID,917.879,VALID,0,VALID,93.0362,VALID,0,VALID,20.3838,VALID,345,VALID,0.464844,
2013-09-25, 02:34:05,VALID,917.887,VALID,0,VALID,93.0438,VALID,0,VALID,20.3854,VALID,141,VALID,0.821094,
2013-09-25, 02:35:05,VALID,917.887,VALID,0,VALID,93.1886,VALID,0,VALID,20.3464,VALID,160,VALID,0.557813,
2013-09-25, 02:36:05,VALID,917.893,VALID,0,VALID,93.3716,VALID,0,VALID,20.3284,VALID,171,VALID,0.767578,
2013-09-25, 02:37:05,VALID,917.914,VALID,0,VALID,93.5469,VALID,0,VALID,20.2699,VALID,171,VALID,1.02734,
2013-09-25, 02:38:05,VALID,917.867,VALID,0,VALID,93.6994,VALID,0.107441,VALID,20.1888,VALID,162,VALID,0.342969,
2013-09-25, 02:39:05,VALID,917.876,VALID,0,VALID,93.9281,VALID,0,VALID,20.1903,VALID,154,VALID,0.515625,
2013-09-25, 02:40:05,VALID,917.873,VALID,0,VALID,94.0272,VALID,0,VALID,20.1693,VALID,151,VALID,0.600391,
2013-09-25, 02:41:05,VALID,917.881,VALID,0,VALID,94.1111,VALID,0,VALID,20.1498,VALID,149,VALID,0.358594,
2013-09-25, 02:42:05,VALID,917.922,VALID,0,VALID,94.1949,VALID,0,VALID,20.1318,VALID,149,VALID,0.821094,
2013-09-25, 02:43:05,VALID,917.932,VALID,0,VALID,94.3017,VALID,0,VALID,20.0928,VALID,142,VALID,0.316016,
2013-09-25, 02:44:05,VALID,917.958,VALID,0,VALID,94.3626,VALID,0,VALID,20.0733,VALID,142,VALID,0.460156,
2013-09-25, 02:45:05,VALID,917.976,VALID,0,VALID,94.4694,VALID,0,VALID,20.0343,VALID,142,VALID,0.0511719,
2013-09-25, 02:46:05,VALID,917.986,VALID,0,VALID,94.5609,VALID,0,VALID,20.0133,VALID,142,VALID,0.341016,
2013-09-25, 02:47:05,VALID,917.987,VALID,0,VALID,94.6523,VALID,0,VALID,20.0343,VALID,142,VALID,0.3,
2013-09-25, 02:48:05,VALID,917.964,VALID,0,VALID,94.7438,VALID,0,VALID,20.0749,VALID,142,VALID,0.586719,
2013-09-25, 02:49:05,VALID,917.956,VALID,0,VALID,94.7743,VALID,0,VALID,20.0749,VALID,142,VALID,0.824609,
2013-09-25, 02:50:05,VALID,917.979,VALID,0,VALID,94.7896,VALID,0,VALID,20.0538,VALID,142,VALID,0.432813,
2013-09-25, 02:51:05,VALID,917.995,VALID,0,VALID,94.8048,VALID,0,VALID,20.0538,VALID,142,VALID,0.313281,
2013-09-25, 02:52:05,VALID,917.977,VALID,0,VALID,94.8124,VALID,0,VALID,20.0538,VALID,142,VALID,0.0183594,
2013-09-25, 02:53:05,VALID,917.984,VALID,0,VALID,94.7896,VALID,0,VALID,20.0538,VALID,142,VALID,0.626953,
2013-09-25, 02:54:05,VALID,917.958,VALID,0,VALID,94.7591,VALID,0,VALID,20.0343,VALID,142,VALID,0.867578,
2013-09-25, 02:55:05,VALID,917.947,VALID,0,VALID,94.7438,VALID,0,VALID,20.0343,VALID,142,VALID,0.847656,
2013-09-25, 02:56:05,VALID,917.944,VALID,0,VALID,94.7514,VALID,0,VALID,20.0343,VALID,142,VALID,0.626953,
2013-09-25, 02:57:05,VALID,917.938,VALID,0,VALID,94.7591,VALID,0,VALID,20.0163,VALID,142,VALID,0.650391,
2013-09-25, 02:58:05,VALID,917.931,VALID,0,VALID,94.7819,VALID,0,VALID,19.9953,VALID,142,VALID,0.622656,
2013-09-25, 02:59:05,VALID,917.909,VALID,0,VALID,94.7819,VALID,0,VALID,20.0148,VALID,142,VALID,0.8,
2013-09-25, 03:00:05,VALID,917.939,VALID,0,VALID,94.7591,VALID,0,VALID,20.0358,VALID,142,VALID,0.842578,
2013-09-25, 03:01:05,VALID,917.947,VALID,0,VALID,94.7133,VALID,0,VALID,20.0343,VALID,142,VALID,0.758203,
2013-09-25, 03:02:05,VALID,917.922,VALID,0,VALID,94.7133,VALID,0,VALID,20.0343,VALID,141,VALID,0.890625,
2013-09-25, 03:03:05,VALID,917.932,VALID,0,VALID,94.7133,VALID,0,VALID,20.0733,VALID,141,VALID,0.847266,
2013-09-25, 03:04:05,VALID,917.955,VALID,0,VALID,94.6981,VALID,0,VALID,20.0523,VALID,141,VALID,0.598437,
2013-09-25, 03:05:05,VALID,917.974,VALID,0,VALID,94.7133,VALID,0,VALID,20.0718,VALID,141,VALID,0.488281,
2013-09-25, 03:06:05,VALID,917.974,VALID,0,VALID,94.7362,VALID,0,VALID,20.0718,VALID,148,VALID,0.566406,
2013-09-25, 03:07:05,VALID,917.986,VALID,0,VALID,94.6828,VALID,0,VALID,20.1123,VALID,153,VALID,0.542969,
2013-09-25, 03:08:05,VALID,917.972,VALID,0,VALID,94.6752,VALID,0,VALID,20.1123,VALID,153,VALID,0.367578,
2013-09-25, 03:09:05,VALID,917.964,VALID,0,VALID,94.66,VALID,0,VALID,20.1108,VALID,149,VALID,0.811719,
2013-09-25, 03:10:05,VALID,917.976,VALID,0,VALID,94.6752,VALID,0,VALID,20.1318,VALID,149,VALID,0.0882813,
2013-09-25, 03:11:05,VALID,917.96,VALID,0,VALID,94.7209,VALID,0,VALID,20.1303,VALID,149,VALID,0.00664063,
2013-09-25, 03:12:05,VALID,917.938,VALID,0,VALID,94.6447,VALID,0,VALID,20.1919,VALID,111,VALID,0.823047,
2013-09-25, 03:13:05,VALID,917.938,VALID,0,VALID,94.4922,VALID,0,VALID,20.1934,VALID,86,VALID,1.39766,
2013-09-25, 03:14:05,VALID,917.966,VALID,0,VALID,94.4389,VALID,0,VALID,20.1513,VALID,85,VALID,1.38672,
2013-09-25, 03:15:05,VALID,917.96,VALID,0,VALID,94.4236,VALID,0,VALID,20.1529,VALID,85,VALID,0.482812,
2013-09-25, 03:16:05,VALID,918.006,VALID,0,VALID,94.4236,VALID,0,VALID,20.1529,VALID,86,VALID,0.616797,
2013-09-25, 03:17:05,VALID,918.023,VALID,0,VALID,94.4541,VALID,0,VALID,20.1708,VALID,241,VALID,0.158984,
2013-09-25, 03:18:05,VALID,918.03,VALID,0,VALID,94.3703,VALID,0,VALID,20.1903,VALID,208,VALID,0.596094,
2013-09-25, 03:19:05,VALID,918.041,VALID,0,VALID,94.3931,VALID,0,VALID,20.2114,VALID,181,VALID,0.746484,
2013-09-25, 03:20:05,VALID,918.025,VALID,0,VALID,94.3779,VALID,0,VALID,20.2293,VALID,179,VALID,0.419531,
2013-09-25, 03:21:05,VALID,918.016,VALID,0,VALID,94.294,VALID,0,VALID,20.2504,VALID,179,VALID,0,
2013-09-25, 03:22:05,VALID,918.031,VALID,0,VALID,94.1797,VALID,0,VALID,20.2293,VALID,179,VALID,0,
2013-09-25, 03:23:05,VALID,918.051,VALID,0,VALID,94.0501,VALID,0,VALID,20.2489,VALID,179,VALID,0,
2013-09-25, 03:24:05,VALID,918.061,VALID,0,VALID,93.9281,VALID,0,VALID,20.2699,VALID,179,VALID,0,
2013-09-25, 03:25:05,VALID,918.08,VALID,0,VALID,93.768,VALID,0,VALID,20.2489,VALID,179,VALID,0,
2013-09-25, 03:26:05,VALID,918.086,VALID,0,VALID,93.5317,VALID,0,VALID,20.2684,VALID,179,VALID,0,
2013-09-25, 03:27:05,VALID,918.071,VALID,0,VALID,93.242,VALID,0,VALID,20.2879,VALID,179,VALID,0.386719,
2013-09-25, 03:28:05,VALID,918.089,VALID,0,VALID,93.2954,VALID,0,VALID,20.3074,VALID,179,VALID,0.287891,
2013-09-25, 03:29:05,VALID,918.125,VALID,0,VALID,93.242,VALID,0,VALID,20.3058,VALID,179,VALID,0.511328,
2013-09-25, 03:30:05,VALID,918.094,VALID,0,VALID,93.2649,VALID,0,VALID,20.3464,VALID,180,VALID,0.739844,
2013-09-25, 03:31:05,VALID,918.102,VALID,0,VALID,93.4097,VALID,0,VALID,20.3269,VALID,176,VALID,1.11953,
2013-09-25, 03:32:05,VALID,918.097,VALID,0,VALID,93.6918,VALID,0,VALID,20.3253,VALID,175,VALID,0.470313,
2013-09-25, 03:33:05,VALID,918.096,VALID,0,VALID,93.4936,VALID,0,VALID,20.2879,VALID,175,VALID,0.541016,
2013-09-25, 03:34:05,VALID,918.11,VALID,0,VALID,93.4021,VALID,0,VALID,20.2473,VALID,175,VALID,0.211328,
2013-09-25, 03:35:05,VALID,918.153,VALID,0,VALID,93.3716,VALID,0,VALID,20.2473,VALID,180,VALID,0.951172,
2013-09-25, 03:36:05,VALID,918.193,VALID,0,VALID,93.3335,VALID,0,VALID,20.2894,VALID,203,VALID,0.894922,
2013-09-25, 03:37:05,VALID,918.206,VALID,0.2,VALID,93.2039,VALID,0,VALID,20.2699,VALID,235,VALID,0.601172,
2013-09-25, 03:38:05,VALID,918.206,VALID,0.2,VALID,93.0209,VALID,0,VALID,20.2293,VALID,234,VALID,0.389062,
2013-09-25, 03:39:05,VALID,918.224,VALID,0.2,VALID,92.5788,VALID,0,VALID,20.1498,VALID,231,VALID,1.04258,
2013-09-25, 03:40:05,VALID,918.196,VALID,0,VALID,92.3729,VALID,0,VALID,20.2098,VALID,222,VALID,0.0203125,
2013-09-25, 03:41:05,VALID,918.237,VALID,0,VALID,91.8698,VALID,0,VALID,20.1513,VALID,255,VALID,1.05508,
2013-09-25, 03:42:05,VALID,918.274,VALID,0.2,VALID,91.8164,VALID,0,VALID,20.1529,VALID,246,VALID,0.872656,
2013-09-25, 03:43:05,VALID,918.281,VALID,0,VALID,91.9689,VALID,0,VALID,20.1334,VALID,243,VALID,0.595703,
2013-09-25, 03:44:05,VALID,918.266,VALID,0,VALID,92.2281,VALID,0,VALID,20.0733,VALID,245,VALID,1.11328,
2013-09-25, 03:45:05,VALID,918.301,VALID,0,VALID,92.594,VALID,0,VALID,20.0133,VALID,246,VALID,0.76875,
2013-09-25, 03:46:05,VALID,918.278,VALID,0.2,VALID,92.9447,VALID,0,VALID,20.0148,VALID,250,VALID,0.556641,
2013-09-25, 03:47:05,VALID,918.268,VALID,0,VALID,93.3335,VALID,0,VALID,20.0148,VALID,250,VALID,0.310156,
2013-09-25, 03:48:05,VALID,918.295,VALID,0.2,VALID,93.2877,VALID,0,VALID,19.9968,VALID,250,VALID,0.607813,
2013-09-25, 03:49:05,VALID,918.302,VALID,0,VALID,93.6003,VALID,0,VALID,19.9953,VALID,250,VALID,0,